Seafalcon — 9HA2814 — position and weather

sailwx.info

Track history (hours):
 
Tides and Currents Weather Stations Pressure Air Temp Water Temp Dewpoint Dewpoint Depression Visibility Wind Speed Wind Dir Waves Ship Positions

Seafalcon

Last reported at 2014-Sep-20 11:29 UTC. Time now 2014-Sep-20 14:02 UTC.
Position N 36°56' E 000°57'.

Length 250 m; draft 11.7 m.

Type: Tanker. MMSI: 256078000.

Date/timePositionNaut miles runAvg speedWind from/ knotsBaromVisibWave heightAir tempDewpointWater temp
2014-Sep-20 11:29N 36°56' E 000°57'1011.2
2014-Sep-20 10:33N 36°53' E 000°45'1313.0
2014-Sep-20 09:31N 36°50' E 000°28'1412.8
2014-Sep-20 08:27N 36°47' E 000°11'3311.3
2014-Sep-20 05:29N 36°40' W 000°29'1011.0
2014-Sep-20 04:33N 36°38' W 000°42'1110.9
2014-Sep-20 03:33N 36°35' W 000°55'21311.7
2014-Sep-19 09:21N 36°05' W 005°17'6 0.6
2014-Sep-19 00:14N 36°00' W 005°20'811.9
2014-Sep-18 23:33N 35°57' W 005°30'214 8.5
2014-Sep-17 22:20N 37°32' W 009°29'7 8.8
2014-Sep-17 21:33N 37°36' W 009°22'9 8.6
2014-Sep-17 20:33N 37°42' W 009°14'9 8.5
2014-Sep-17 19:33N 37°47' W 009°05'8 8.4
2014-Sep-17 18:33N 37°52' W 008°57'5 5.2
2014-Sep-17 17:31N 37°57' W 008°53'0 0.0
2014-Sep-17 16:31N 37°57' W 008°53'0 0.0
2014-Sep-17 15:31N 37°57' W 008°53'0 0.0
2014-Sep-17 14:28N 37°57' W 008°53'0 0.0
2014-Sep-17 13:31N 37°57' W 008°53'0 0.0
2014-Sep-17 12:31N 37°57' W 008°53'0 0.0
2014-Sep-17 11:31N 37°57' W 008°53'0 0.0
2014-Sep-17 10:31N 37°57' W 008°53'0 0.0
2014-Sep-17 09:31N 37°57' W 008°53'0 0.0
2014-Sep-17 08:33N 37°57' W 008°53'0 0.0
2014-Sep-17 07:31N 37°57' W 008°53'0 0.0
2014-Sep-17 06:31N 37°57' W 008°53'0 0.0
2014-Sep-17 05:31N 37°57' W 008°53'0 0.0
2014-Sep-17 03:28N 37°57' W 008°53'0 0.0
2014-Sep-17 02:33N 37°57' W 008°53'0 0.0
2014-Sep-17 01:30N 37°57' W 008°53'0 0.0
2014-Sep-17 00:31N 37°57' W 008°53'0 0.0
2014-Sep-16 23:31N 37°57' W 008°53'0 0.0
2014-Sep-16 22:31N 37°57' W 008°53'0 0.0
2014-Sep-16 21:34N 37°57' W 008°53'0 0.0
2014-Sep-16 20:33N 37°57' W 008°53'0 0.0
2014-Sep-16 19:34N 37°57' W 008°53'0 0.0
2014-Sep-16 18:34N 37°57' W 008°53'0 0.0
2014-Sep-16 17:33N 37°57' W 008°53'0 0.0
2014-Sep-16 16:31N 37°57' W 008°53'0 0.0
2014-Sep-16 15:33N 37°57' W 008°53'0 0.0
2014-Sep-16 14:33N 37°57' W 008°53'0 0.0
2014-Sep-16 13:33N 37°57' W 008°53'0 0.0
2014-Sep-16 12:34N 37°57' W 008°53'0 0.0
2014-Sep-16 11:31N 37°57' W 008°53'0 0.0
2014-Sep-16 10:33N 37°57' W 008°53'1 1.4
2014-Sep-16 09:33N 37°56' W 008°54'9 8.7
2014-Sep-16 08:33N 38°02' W 009°02'1111.2
2014-Sep-16 07:33N 38°07' W 009°14'1211.8
2014-Sep-16 06:33N 38°13' W 009°27'  
2014-Sep-12 20:25N 50°24' W 000°37'1011.8
2014-Sep-12 19:33N 50°26' W 000°21'2713.3
2014-Sep-12 17:33N 50°33' E 000°19'1313.2
2014-Sep-12 16:33N 50°38' E 000°39'1212.4
2014-Sep-12 15:33N 50°45' E 000°55'2210.2
2014-Sep-12 13:23N 50°58' E 001°23'910.9
2014-Sep-12 12:33N 51°05' E 001°33'1212.5
2014-Sep-12 11:34N 51°14' E 001°46'1514.6
2014-Sep-12 10:33N 51°27' E 001°58'1414.5
2014-Sep-12 09:33N 51°38' E 002°13'213 7.3
2014-Sep-11 04:18N 54°57' E 000°08'1012.6
2014-Sep-11 03:33N 54°54' W 000°07'1312.7
2014-Sep-11 02:33N 54°50' W 000°28'1312.7
2014-Sep-11 01:33N 54°46' W 000°49'1110.7
2014-Sep-11 00:33N 54°42' W 001°07'5 0.8
2014-Sep-10 18:14N 54°37' W 001°10'0 0.0
2014-Sep-10 17:29N 54°37' W 001°10'0 0.0
2014-Sep-10 16:32N 54°37' W 001°10'0 0.0
2014-Sep-10 14:29N 54°37' W 001°10'0 0.0
2014-Sep-10 13:32N 54°37' W 001°10'0 0.0
2014-Sep-10 12:32N 54°37' W 001°10'0 0.0
2014-Sep-10 11:32N 54°37' W 001°10'  
Track history (hours):
 
Tides and Currents Weather Stations Pressure Air Temp Water Temp Dewpoint Dewpoint Depression Visibility Wind Speed Wind Dir Waves Ship Positions

Seafalcon

Last reported at 2014-Sep-20 11:29 UTC. Time now 2014-Sep-20 14:02 UTC.
Position N 36°56' E 000°57'.

Length 250 m; draft 11.7 m.

Type: Tanker. MMSI: 256078000.

Date/timePositionNaut miles runAvg speedWind from/ knotsBaromVisibWave heightAir tempDewpointWater temp
2014-Sep-20 11:29N 36°56' E 000°57'1011.2
2014-Sep-20 10:33N 36°53' E 000°45'1313.0
2014-Sep-20 09:31N 36°50' E 000°28'1412.8
2014-Sep-20 08:27N 36°47' E 000°11'3311.3
2014-Sep-20 05:29N 36°40' W 000°29'1011.0
2014-Sep-20 04:33N 36°38' W 000°42'1110.9
2014-Sep-20 03:33N 36°35' W 000°55'21311.7
2014-Sep-19 09:21N 36°05' W 005°17'6 0.6
2014-Sep-19 00:14N 36°00' W 005°20'811.9
2014-Sep-18 23:33N 35°57' W 005°30'214 8.5
2014-Sep-17 22:20N 37°32' W 009°29'7 8.8
2014-Sep-17 21:33N 37°36' W 009°22'9 8.6
2014-Sep-17 20:33N 37°42' W 009°14'9 8.5
2014-Sep-17 19:33N 37°47' W 009°05'8 8.4
2014-Sep-17 18:33N 37°52' W 008°57'5 5.2
2014-Sep-17 17:31N 37°57' W 008°53'0 0.0
2014-Sep-17 16:31N 37°57' W 008°53'0 0.0
2014-Sep-17 15:31N 37°57' W 008°53'0 0.0
2014-Sep-17 14:28N 37°57' W 008°53'0 0.0
2014-Sep-17 13:31N 37°57' W 008°53'0 0.0
2014-Sep-17 12:31N 37°57' W 008°53'0 0.0
2014-Sep-17 11:31N 37°57' W 008°53'0 0.0
2014-Sep-17 10:31N 37°57' W 008°53'0 0.0
2014-Sep-17 09:31N 37°57' W 008°53'0 0.0
2014-Sep-17 08:33N 37°57' W 008°53'0 0.0
2014-Sep-17 07:31N 37°57' W 008°53'0 0.0
2014-Sep-17 06:31N 37°57' W 008°53'0 0.0
2014-Sep-17 05:31N 37°57' W 008°53'0 0.0
2014-Sep-17 03:28N 37°57' W 008°53'0 0.0
2014-Sep-17 02:33N 37°57' W 008°53'0 0.0
2014-Sep-17 01:30N 37°57' W 008°53'0 0.0
2014-Sep-17 00:31N 37°57' W 008°53'0 0.0
2014-Sep-16 23:31N 37°57' W 008°53'0 0.0
2014-Sep-16 22:31N 37°57' W 008°53'0 0.0
2014-Sep-16 21:34N 37°57' W 008°53'0 0.0
2014-Sep-16 20:33N 37°57' W 008°53'0 0.0
2014-Sep-16 19:34N 37°57' W 008°53'0 0.0
2014-Sep-16 18:34N 37°57' W 008°53'0 0.0
2014-Sep-16 17:33N 37°57' W 008°53'0 0.0
2014-Sep-16 16:31N 37°57' W 008°53'0 0.0
2014-Sep-16 15:33N 37°57' W 008°53'0 0.0
2014-Sep-16 14:33N 37°57' W 008°53'0 0.0
2014-Sep-16 13:33N 37°57' W 008°53'0 0.0
2014-Sep-16 12:34N 37°57' W 008°53'0 0.0
2014-Sep-16 11:31N 37°57' W 008°53'0 0.0
2014-Sep-16 10:33N 37°57' W 008°53'1 1.4
2014-Sep-16 09:33N 37°56' W 008°54'9 8.7
2014-Sep-16 08:33N 38°02' W 009°02'1111.2
2014-Sep-16 07:33N 38°07' W 009°14'1211.8
2014-Sep-16 06:33N 38°13' W 009°27'  
2014-Sep-12 20:25N 50°24' W 000°37'1011.8
2014-Sep-12 19:33N 50°26' W 000°21'2713.3
2014-Sep-12 17:33N 50°33' E 000°19'1313.2
2014-Sep-12 16:33N 50°38' E 000°39'1212.4
2014-Sep-12 15:33N 50°45' E 000°55'2210.2
2014-Sep-12 13:23N 50°58' E 001°23'910.9
2014-Sep-12 12:33N 51°05' E 001°33'1212.5
2014-Sep-12 11:34N 51°14' E 001°46'1514.6
2014-Sep-12 10:33N 51°27' E 001°58'1414.5
2014-Sep-12 09:33N 51°38' E 002°13'213 7.3
2014-Sep-11 04:18N 54°57' E 000°08'1012.6
2014-Sep-11 03:33N 54°54' W 000°07'1312.7
2014-Sep-11 02:33N 54°50' W 000°28'1312.7
2014-Sep-11 01:33N 54°46' W 000°49'1110.7
2014-Sep-11 00:33N 54°42' W 001°07'5 0.8
2014-Sep-10 18:14N 54°37' W 001°10'0 0.0
2014-Sep-10 17:29N 54°37' W 001°10'0 0.0
2014-Sep-10 16:32N 54°37' W 001°10'0 0.0
2014-Sep-10 14:29N 54°37' W 001°10'0 0.0
2014-Sep-10 13:32N 54°37' W 001°10'0 0.0
2014-Sep-10 12:32N 54°37' W 001°10'0 0.0
2014-Sep-10 11:32N 54°37' W 001°10'  

Dump ship's entire track history